Regional Weather Roundup
Issued by NWS

Home | Current Version | Previous Version | Text Only | Print | Product List | Glossary Off
Versions: 1 2 3 4 5 6 7 8 9 10 11 12 13 14 15 16 17 18 19 20 21 22 23 24 25 26 27 28 29 30 31 32 33 34 35 36 37 38 39 40 41 42 43 44 45 46 47 48 49 50

000
ASUS43 KDMX 262101
RWRIA

WEATHER ROUNDUP FOR IOWA
NATIONAL WEATHER SERVICE DES MOINES IA
400 PM CDT MON JUN 26 2017

NOTE: "FAIR" INDICATES FEW OR NO CLOUDS BELOW 12,000 FEET WITH NO
SIGNIFICANT WEATHER AND/OR OBSTRUCTIONS TO VISIBILITY.

* - THESE STATIONS ARE NOT NWS STATIONS...THUS NOT UNDER NWS
QUALITY CONTROL.  THEY ALSO DO NOT REPORT WEATHER SUCH
AS PRECIPITATION OR FOG.

IAZ001>003-012>014-020>022-031>034-043>046-262200-
   NORTHWEST IOWA

CITY           SKY/WX    TMP DP  RH WIND       PRES   REMARKS
CARROLL *      PTSUNNY   72  45  37 N12       30.14F
CHEROKEE *     MOSUNNY   70  43  37 N7        30.16S
DENISON *      SUNNY     70  45  40 N8        30.16S
LE MARS *      SUNNY     72  41  33 N10       30.17F
ORANGE CITY *  SUNNY     70  43  37 NE6       30.17F
SHELDON *      SUNNY     70  41  35 N6G16     30.16S
SIOUX CITY     MOSUNNY   76  46  34 N5        30.15F
SPENCER        SUNNY     71  40  32 N7        30.16F
STORM LAKE *   SUNNY     70  41  35 NE8G15    30.16F
$$

IAZ055>058-069>071-079>083-090>094-262200-
   SOUTHWEST IOWA

CITY           SKY/WX    TMP DP  RH WIND       PRES   REMARKS
ATLANTIC *     MOSUNNY   73  50  43 N9        30.13F
AUDUBON *      PTSUNNY   73  52  46 NE8       30.15F
CLARINDA *     MOSUNNY   73  59  60 W6        30.15F
COUNCIL BLFS * PTSUNNY   73  54  49 NE6       30.13S
CRESTON *      PTSUNNY   72  52  49 VRB5      30.14F
HARLAN  *      PTSUNNY   70  50  49 VRB6      30.17F
LAMONI         PTSUNNY   73  57  57 W10       30.13F
RED OAK *      PTSUNNY   73  59  60 VRB3      30.12F
SHENANDOAH *   MOSUNNY   72  59  64 VRB3      30.13F
$$

IAZ047>049-059>061-072>074-084-262200-
   CENTRAL IOWA

CITY           SKY/WX    TMP DP  RH WIND       PRES   REMARKS
AMES           MOSUNNY   74  46  36 NW10      30.13F
ANKENY *       PTSUNNY   70  50  49 N8G14     30.13F
BOONE *        MOSUNNY   70  43  37 N10G17    30.13S
CHARITON *     SUNNY     73  52  46 N10       30.12F
DES MOINES     MOSUNNY   74  52  46 NW8       30.12F
GRINNELL*      MOSUNNY   74  45  35 NW9G17    30.12F
KNOXVILLE *    MOSUNNY   70  50  49 CALM      30.11F
MARSHALLTOWN   SUNNY     72  44  36 N10       30.12F
NEWTON *       MOSUNNY   72  48  43 N10G18    30.12F
PELLA *        MOSUNNY   72  51  48 W3        30.13F
PERRY *          N/A     72  45  37 N9        30.13F
$$

IAZ004>006-015-016-023>025-035-036-262200-
   NORTH CENTRAL IOWA

CITY           SKY/WX    TMP DP  RH WIND       PRES   REMARKS
ALGONA *       MOSUNNY   70  39  32 NW9G18    30.15F
CLARION *        N/A     70  41  35 VRB6G16   30.14F
ESTHERVILLE    SUNNY     68  42  38 N12G18    30.16F
FORT DODGE *   SUNNY     72  43  35 N8        30.15F
MASON CITY     SUNNY     70  40  33 N13G18    30.15F
FOREST CITY *    N/A     70  28  21 N13       30.15F
WEBSTER CITY * SUNNY     72  43  35 N7G16     30.12F
IOWA FALLS *     N/A     72  41  33 N9G18     30.14F
$$

IAZ007>011-017>019-026>030-037>042-050>054-066-262200-
   NORTHEAST IOWA

CITY           SKY/WX    TMP DP  RH WIND       PRES   REMARKS
CEDAR RAPIDS   MOSUNNY   72  47  40 N20       30.09F
CHARLES CITY * MOSUNNY   68  41  37 NW12G17   30.14F
CLINTON *      SUNNY     72  45  37 NW17G25   30.08F
DECORAH *      PTSUNNY   66  45  45 N9G16     30.12F
DUBUQUE        MOSUNNY   67  42  40 N14G25    30.11S
MONTICELLO *   MOSUNNY   70  46  43 N14G23    30.10F
OELWEIN *      SUNNY     68  43  40 N16       30.12F
WATERLOO       MOSUNNY   71  40  32 N15G25    30.10F
$$

IAZ064-065-067-068-078-262200-
   EAST CENTRAL IOWA

CITY           SKY/WX    TMP DP  RH WIND       PRES   REMARKS
DAVENPORT      MOSUNNY   72  47  40 N20G26    30.08F
IOWA CITY      MOSUNNY   74  46  36 NW14G23   30.10F
MUSCATINE *    MOSUNNY   72  52  49 NW15      30.09F
QUAD CITIES    MOSUNNY   73  51  46 NW14G20   30.07F
$$

IAZ062-063-075>077-085>089-095>099-262200-
   SOUTHEAST IOWA

CITY           SKY/WX    TMP DP  RH WIND       PRES   REMARKS
BURLINGTON     MOSUNNY   73  53  49 W13G24    30.10F
FAIRFIELD *    SUNNY     73  52  46 SW12      30.10F
FORT MADISON * MOSUNNY   72  54  53 W8        30.11F
KEOKUK *       MOSUNNY   73  52  46 W13G21    30.11F
OSKALOOSA *      N/A     72  52  49 W6        30.11F
OTTUMWA        MOSUNNY   73  53  49 W12       30.11F
WASHINGTON *   LGT RAIN  64  57  77 NW13      30.12S
$$

ABBREVIATIONS USED IN REMARKS
   TC - TEMPERATURES IN CELSIUS
  WCI - WIND CHILL INDEX
   HX - HEAT INDEX
  VSB - VISIBILITY
$$




USA.gov is the U.S. government's official web portal to all federal, state and local government web resources and services.